Location: Stull Observatory
(42.2506°N, 77.7903°W)
Time: 08:58:17
(UTC-05:00)

ISS - All Passes

Search period start: 18 November 2017 00:00
Search period end: 28 November 2017 00:00
Orbit: 401 x 407 km, 51.6° (Epoch: 18 November)

Date Brightness Start Highest point End Pass type
(mag) Time Alt. Az. Time Alt. Az. Time Alt. Az.
18 Nov - 00:49:09 10° NW 00:51:29 18° N 00:53:49 10° NE night (unlit)
18 Nov - 02:26:33 10° NW 02:28:51 18° N 02:31:10 10° NE night (unlit)
18 Nov - 04:02:44 10° NW 04:05:55 49° NNE 04:09:05 10° ESE visible
18 Nov - 05:39:40 10° W 05:42:10 21° SW 05:44:41 10° S visible
18 Nov - 20:45:39 10° SE 20:46:11 10° SE 20:46:41 10° ESE night (unlit)
18 Nov - 22:18:53 10° SW 22:22:09 87° SE 22:25:26 10° NE night (unlit)
18 Nov - 23:56:21 10° WNW 23:58:58 22° NNW 00:01:36 10° NE night (unlit)
19 Nov - 01:34:12 10° NW 01:36:19 16° N 01:38:26 10° NE night (unlit)
19 Nov - 03:10:33 10° NW 03:13:32 31° NNE 03:16:30 10° E night (unlit)
19 Nov - 04:46:59 10° WNW 04:50:03 38° SW 04:53:06 10° SSE visible
19 Nov - 21:26:46 10° SW 21:29:55 45° SE 21:33:04 10° ENE night (unlit)
19 Nov - 23:03:35 10° W 23:06:30 29° NNW 23:09:25 10° NE night (unlit)
20 Nov - 00:41:38 10° NW 00:43:44 16° N 00:45:50 10° NE night (unlit)
20 Nov - 02:18:22 10° NW 02:21:04 23° NNE 02:23:45 10° ENE night (unlit)
20 Nov - 03:54:34 10° WNW 03:57:49 75° SW 04:01:04 10° SE visible
20 Nov - 20:35:03 10° S 20:37:45 24° SE 20:40:27 10° E night (unlit)
20 Nov - 22:10:55 10° WSW 22:14:04 44° NNW 22:17:14 10° NE night (unlit)
20 Nov - 23:48:55 10° NW 23:51:10 17° N 23:53:25 10° NE night (unlit)
21 Nov - 01:26:08 10° NW 01:28:33 19° NNE 01:30:56 10° ENE night (unlit)
21 Nov - 03:02:17 10° NW 03:05:32 60° NNE 03:08:44 10° ESE night (unlit)
21 Nov - 04:39:31 10° W 04:41:41 17° SW 04:43:51 10° S visible
21 Nov - 19:44:03 10° SSE 19:45:39 13° SE 19:47:14 10° E night (unlit)
21 Nov - 21:18:26 10° WSW 21:21:42 76° NNW 21:24:59 10° NE night (unlit)
21 Nov - 22:56:04 10° WNW 22:58:36 20° NNW 23:01:07 10° NE night (unlit)
22 Nov - 00:33:47 10° NW 00:35:58 16° N 00:38:08 10° NE night (unlit)
22 Nov - 02:10:04 10° NW 02:13:07 36° NNE 02:16:11 10° E night (unlit)
22 Nov - 03:46:37 10° WNW 03:49:33 31° SW 03:52:27 10° SSE night (unlit)
22 Nov - 20:26:11 10° SW 20:29:24 57° SE 20:32:38 10° ENE night (unlit)
22 Nov - 22:03:15 10° W 22:06:04 26° NNW 22:08:54 10° NE night (unlit)
22 Nov - 23:41:16 10° NW 23:43:21 16° N 23:45:27 10° NE night (unlit)
23 Nov - 01:17:51 10° NW 01:20:39 25° NNE 01:23:26 10° ENE night (unlit)
23 Nov - 02:54:06 10° WNW 02:57:19 60° SW 03:00:32 10° SE night (unlit)
23 Nov - 19:34:16 10° SSW 19:37:10 30° SE 19:40:05 10° ENE visible
23 Nov - 21:10:30 10° W 21:13:35 37° NNW 21:16:41 10° NE night (unlit)
23 Nov - 22:48:32 10° NW 22:50:44 16° N 22:52:55 10° NE night (unlit)
24 Nov - 00:25:36 10° NW 00:28:06 20° NNE 00:30:36 10° ENE night (unlit)
24 Nov - 02:01:44 10° NW 02:05:00 73° NNE 02:08:15 10° ESE night (unlit)
24 Nov - 03:39:23 10° W 03:41:04 13° SW 03:42:45 10° SSW night (unlit)
24 Nov - 18:42:53 10° S 18:45:01 16° SE 18:47:07 10° E visible
24 Nov - 20:17:55 10° WSW 20:21:09 62° NNW 20:24:25 10° NE night (unlit)
24 Nov - 21:55:42 10° WNW 21:58:07 19° NNW 22:00:33 10° NE night (unlit)
24 Nov - 23:33:15 10° NW 23:35:29 17° N 23:37:44 10° NE night (unlit)
25 Nov - 01:09:27 10° NW 01:12:36 42° NNE 01:15:43 10° E night (unlit)
25 Nov - 02:46:11 10° WNW 02:48:56 25° SW 02:51:39 10° SSE night (unlit)
25 Nov - 19:25:32 10° SW 19:28:48 72° SE 19:32:04 10° ENE visible
25 Nov - 21:02:48 10° WNW 21:05:32 23° NNW 21:08:16 10° NE night (unlit)
25 Nov - 22:40:45 10° NW 22:42:51 16° N 22:44:57 10° NE night (unlit)
26 Nov - 00:17:12 10° NW 00:20:06 28° NNE 00:22:59 10° E night (unlit)
26 Nov - 01:53:32 10° WNW 01:56:42 47° SW 01:59:49 10° SE night (unlit)
26 Nov - 18:33:26 10° SSW 18:36:29 37° SE 18:39:33 10° ENE visible
26 Nov - 20:09:59 10° W 20:12:59 32° NNW 20:16:00 10° NE visible
26 Nov - 21:48:03 10° NW 21:50:11 16° N 21:52:20 10° NE night (unlit)
26 Nov - 23:24:56 10° NW 23:27:32 21° NNE 23:30:07 10° ENE night (unlit)
27 Nov - 01:01:04 10° NW 01:04:21 89° N 01:07:37 10° SE night (unlit)
27 Nov - 02:39:32 10° WSW 02:40:20 11° SW 02:41:09 10° SW night (unlit)
27 Nov - 17:41:47 10° S 17:44:16 20° SE 17:46:44 10° E visible
27 Nov - 19:17:17 10° WSW 19:20:29 51° NNW 19:23:42 10° NE visible
27 Nov - 20:55:11 10° NW 20:57:31 18° N 20:59:52 10° NE night (unlit)
27 Nov - 22:32:34 10° NW 22:34:54 18° N 22:37:13 10° NE night (unlit)
